• Join FlightAware (Why Join?)
  • Login
  • US Flag 
04:58AM EDT


 

Airport Tracker/Info


-or-


 

Live Flight TrackerFlight Track Log ✈ LAK807 ✈ 15-Dec-2013 ✈ KSAN - KIAH

Flight Track Log - Related Links

Times and Time Zones

All times are in EST time to prevent confusion due to time zone crossing. See the LAK807 flight status page for this flight to view local times or setup timezone preferences in your user account.

Time Position Orientation Groundspeed Altitude Reporting Facility
EST Latitude Longitude Course Direction KTS MPH feet Rate Location/Type
10:31AM 32.7500 -117.2333 93° East 165 190 3,100  Level Southern California TRACON
10:31AM 32.7578 -117.2836 280° West 166 191 5,600 2,340 Climbing Los Angeles Center
10:33AM 32.7553 -117.3383 267° West 183 211 7,600 1,860 Climbing Los Angeles Center
10:34AM 32.7064 -117.3139 157° South 206 237 9,500 1,680 Climbing Los Angeles Center
10:35AM 32.6561 -117.2556 136° Southeast 241 277 11,100 1,680 Climbing Los Angeles Center
10:36AM 32.6811 -115.9507 93° East  Level Estimated
10:36AM 32.6339 -117.1697 107° East 267 307 13,000  Level Los Angeles Center
10:37AM 32.6089 -117.0767 108° East 287 330 14,400 1,380 Climbing Los Angeles Center
10:38AM 32.6022 -116.9767 94° East 302 348 15,900 1,500 Climbing Los Angeles Center
10:39AM 32.6186 -116.8731 79° East 315 362 17,500 1,500 Climbing Los Angeles Center
10:40AM 32.6322 -116.7661 81° East 325 374 19,000 1,560 Climbing Los Angeles Center
10:41AM 32.6417 -116.6558 84° East 338 389 20,700 1,680 Climbing Los Angeles Center
10:42AM 32.6553 -116.5236 83° East 343 395 22,500 1,620 Climbing Los Angeles Center
10:43AM 32.6647 -116.4100 84° East 351 404 24,000 1,260 Climbing Los Angeles Center
10:44AM 32.6764 -116.2928 83° East 365 420 25,100 1,020 Climbing Los Angeles Center
10:45AM 32.6886 -116.1717 83° East 373 429 26,100 1,080 Climbing Los Angeles Center
10:46AM 32.6997 -116.0464 84° East 381 438 27,400 1,260 Climbing Los Angeles Center
10:47AM 32.7117 -115.9219 83° East 383 441 28,700 1,320 Climbing Los Angeles Center
10:48AM 32.7225 -115.7972 84° East 382 440 30,200 1,620 Climbing Los Angeles Center
10:49AM 32.7364 -115.6500 84° East 377 434 32,000 1,440 Climbing Los Angeles Center
10:50AM 32.7467 -115.5269 84° East 376 433 33,200 1,080 Climbing Los Angeles Center
10:51AM 32.7547 -115.4022 86° East 380 437 34,300 1,080 Climbing Los Angeles Center
10:52AM 32.7536 -115.2744 91° East 386 444 35,400 1,080 Climbing Los Angeles Center
10:53AM 32.7614 -115.1456 86° East 390 449 36,600 960 Climbing Los Angeles Center
10:54AM 32.7603 -115.0422 91° East 391 450 37,400 1,020 Climbing Los Angeles Center
10:55AM 32.7750 -114.8886 83° East 391 450 38,700 1,020 Climbing Los Angeles Center
10:56AM 32.7872 -114.7594 84° East 391 450 39,500 660 Climbing Los Angeles Center
10:57AM 32.7981 -114.6311 84° East 390 449 40,100 540 Climbing Los Angeles Center
10:58AM 32.8092 -114.5019 84° East 392 451 40,700 420 Climbing Los Angeles Center
10:59AM 32.8236 -114.3469 84° East 393 452 41,000 120 Climbing Los Angeles Center
11:00AM 32.8342 -114.2114 85° East 409 471 41,000  Level Los Angeles Center
11:01AM 32.8469 -114.0728 84° East 420 483 41,000  Level Los Angeles Center
11:02AM 32.8581 -113.9328 85° East 426 490 41,000  Level Los Angeles Center
11:03AM 32.8692 -113.7900 85° East 431 496 41,000  Level Los Angeles Center
11:04AM 32.8825 -113.6467 84° East 434 499 41,000  Level Los Angeles Center
11:05AM 32.8906 -113.5242 85° East 439 505 41,000  Level Albuquerque Center
11:06AM 32.9033 -113.3786 84° East 440 506 41,000  Level Albuquerque Center
11:07AM 32.9147 -113.2317 85° East 442 509 41,000  Level Albuquerque Center
11:08AM 32.9264 -113.0833 85° East 445 512 41,000  Level Albuquerque Center
11:09AM 32.9375 -112.9350 85° East 446 513 41,000  Level Albuquerque Center
11:10AM 32.9492 -112.7875 85° East 446 513 41,000  Level Albuquerque Center
11:11AM 32.9389 -112.6372 95° East 451 519 41,000  Level Albuquerque Center
11:12AM 32.9189 -112.4578 98° East 455 524 41,000  Level Albuquerque Center
11:13AM 32.9039 -112.3086 97° East 453 521 41,000  Level Albuquerque Center
11:14AM 32.8908 -112.1636 96° East 455 524 41,000  Level Albuquerque Center
11:15AM 32.8750 -112.0167 97° East 453 521 41,000  Level Albuquerque Center
11:16AM 32.8606 -111.8683 97° East 454 522 41,000  Level Albuquerque Center
11:17AM 32.8444 -111.7194 97° East 457 526 41,000  Level Albuquerque Center
11:18AM 32.8269 -111.5431 97° East 452 520 41,000  Level Albuquerque Center
11:19AM 32.8106 -111.3944 97° East 455 524 41,000  Level Albuquerque Center
11:20AM 32.7942 -111.2464 97° East 454 522 41,000  Level Albuquerque Center
11:21AM 32.7789 -111.0958 97° East 460 529 41,000  Level Albuquerque Center
11:22AM 32.7611 -110.9461 98° East 460 529 41,000  Level Albuquerque Center
11:23AM 32.7450 -110.7964 97° East 461 531 41,000  Level Albuquerque Center
11:24AM 32.7242 -110.6156 98° East 466 536 41,000  Level Albuquerque Center
11:25AM 32.7072 -110.4642 98° East 466 536 41,000  Level Albuquerque Center
11:26AM 32.6903 -110.3119 97° East 467 537 41,000  Level Albuquerque Center
11:28AM 32.6714 -110.1597 98° East 467 537 41,000  Level Albuquerque Center
11:29AM 32.6531 -110.0089 98° East 466 536 41,000  Level Albuquerque Center
11:30AM 32.6350 -109.8561 98° East 468 539 41,000  Level Albuquerque Center
11:31AM 32.6178 -109.7042 98° East 468 539 41,000  Level Albuquerque Center
11:32AM 32.5922 -109.5200 99° East 472 543 41,000  Level Albuquerque Center
11:33AM 32.5733 -109.3681 98° East 470 541 41,000  Level Albuquerque Center
11:34AM 32.5561 -109.2167 98° East 469 540 41,000  Level Albuquerque Center
11:35AM 32.5356 -109.0664 99° East 467 537 41,000  Level Albuquerque Center
11:36AM 32.5172 -108.9153 98° East 468 539 41,000  Level Albuquerque Center
11:37AM 32.4936 -108.7347 99° East 467 537 41,000  Level Albuquerque Center
11:38AM 32.4742 -108.5828 99° East 469 540 41,000  Level Albuquerque Center
11:39AM 32.4542 -108.4317 99° East 469 540 41,000  Level Albuquerque Center
11:40AM 32.4325 -108.2683 99° East 464 534 41,000  Level Albuquerque Center
11:41AM 32.4131 -108.1150 99° East 468 539 41,000  Level Albuquerque Center
11:42AM 32.3908 -107.9647 100° East 467 537 41,000  Level Albuquerque Center
11:43AM 32.3717 -107.8133 98° East 468 539 41,000  Level Albuquerque Center
11:44AM 32.3506 -107.6617 99° East 469 540 41,000  Level Albuquerque Center
11:45AM 32.3272 -107.4958 99° East 466 536 41,000  Level Albuquerque Center
11:46AM 32.3067 -107.3458 99° East 464 534 41,000  Level Albuquerque Center
11:47AM 32.2844 -107.1778 99° East 465 535 41,000  Level Albuquerque Center
11:48AM 32.2636 -107.0272 99° East 465 535 41,000  Level Albuquerque Center
11:49AM 32.2397 -106.8647 100° East 466 536 41,000  Level Albuquerque Center
11:50AM 32.2219 -106.7383 99° East 468 539 41,000  Level Albuquerque Center
11:51AM 32.1958 -106.5586 100° East 465 535 41,000  Level Albuquerque Center
11:52AM 32.1728 -106.4086 100° East 467 537 41,000  Level Albuquerque Center
11:53AM 32.1506 -106.2583 100° East 468 539 41,000  Level Albuquerque Center
11:54AM 32.1269 -106.1089 101° East 466 536 41,000  Level Albuquerque Center
11:55AM 32.1050 -105.9583 100° East 467 537 41,000  Level Albuquerque Center
11:56AM 32.0797 -105.7992 101° East 466 536 41,000  Level Albuquerque Center
11:57AM 32.0561 -105.6489 100° East 466 536 41,000  Level Albuquerque Center
11:58AM 32.0342 -105.4972 100° East 469 540 41,000  Level Albuquerque Center
11:59AM 32.0086 -105.3461 101° East 470 541 41,000  Level Albuquerque Center
12:00PM 31.9867 -105.1950 100° East 468 539 41,000  Level Albuquerque Center
12:01PM 31.9572 -105.0150 101° East 467 537 41,000 -60 Level Albuquerque Center
12:02PM 31.9331 -104.8653 101° East 465 535 40,900  Descending Albuquerque Center
12:03PM 31.9089 -104.7133 101° East 469 540 41,000  Climbing Albuquerque Center
12:05PM 31.8833 -104.5589 101° East 476 548 41,000  Level Albuquerque Center
12:06PM 31.8617 -104.4114 100° East 465 535 41,000  Level Albuquerque Center
12:07PM 31.8353 -104.2597 102° East 469 540 41,000  Level Albuquerque Center
12:08PM 31.8103 -104.1081 101° East 472 543 41,000  Level Albuquerque Center
12:09PM 31.7850 -103.9589 101° East 467 537 41,000 120 Level Albuquerque Center
12:10PM 31.7553 -103.7786 101° East 467 537 41,300 720 Climbing Albuquerque Center
12:11PM 31.7300 -103.6394 102° East 452 520 42,500 780 Climbing Albuquerque Center
12:12PM 31.7058 -103.5033 102° East 435 501 43,000 240 Climbing Albuquerque Center
12:13PM 31.6811 -103.3642 102° East 435 501 43,000  Level Albuquerque Center
12:14PM 31.6536 -103.2214 103° East 442 509 43,000  Level Albuquerque Center
12:15PM 31.6244 -103.0447 101° East 453 521 43,000  Level Albuquerque Center
12:16PM 31.6142 -102.8925 94° East 471 542 43,000  Level Albuquerque Center
12:17PM 31.5989 -102.7428 97° East 463 533 43,000  Level Albuquerque Center
12:18PM 31.5850 -102.5906 96° East 466 536 43,000  Level Albuquerque Center
12:19PM 31.5697 -102.4367 97° East 470 541 43,000  Level Albuquerque Center
12:20PM 31.5564 -102.2817 96° East 473 544 43,000  Level Albuquerque Center
12:21PM 31.5403 -102.1253 97° East 476 548 43,000  Level Albuquerque Center
12:22PM 31.5267 -101.9694 96° East 477 549 43,000  Level Albuquerque Center
12:23PM 31.5069 -101.7828 97° East 478 550 43,000  Level Albuquerque Center
12:24PM 31.4881 -101.6017 97° East 473 544 43,000  Level Houston Center
12:25PM 31.4694 -101.4156 97° East 477 549 43,000  Level Houston Center
12:27PM 31.4544 -101.2614 96° East 478 550 43,000  Level Houston Center
12:28PM 31.4353 -101.1067 98° East 474 545 43,000  Level Fort Worth Center
12:29PM 31.4194 -100.9517 97° East 478 550 43,000  Level Fort Worth Center
12:30PM 31.4025 -100.7981 97° East 477 549 43,000  Level Fort Worth Center
12:31PM 31.3842 -100.6133 97° East 477 549 43,000  Level Fort Worth Center
12:32PM 31.3694 -100.4861 98° East 478 550 43,000  Level Houston Center
12:33PM 31.3478 -100.3011 98° East 478 550 43,000  Level Houston Center
12:34PM 31.3311 -100.1469 97° East 477 549 43,000  Level Houston Center
12:35PM 31.3122 -99.9919 98° East 480 552 43,000  Level Houston Center
12:36PM 31.2956 -99.8378 97° East 475 547 43,000  Level Houston Center
12:37PM 31.2778 -99.6847 98° East 475 547 43,000  Level Houston Center
12:38PM 31.2583 -99.5331 98° East 472 543 43,000  Level Houston Center
12:39PM 31.2375 -99.3497 98° East 472 543 43,000  Level Houston Center
12:40PM 31.2181 -99.1978 98° East 472 543 43,000 -240 Level Houston Center
12:41PM 31.2017 -99.0483 97° East 469 540 42,600 -660 Descending Houston Center
12:42PM 31.1803 -98.8903 99° East 485 558 41,700 -780 Descending Houston Center
12:43PM 31.1606 -98.7275 98° East 499 574 41,000 -360 Descending Houston Center
12:44PM 31.1403 -98.5717 99° East 485 558 41,000  Level Houston Center
12:45PM 31.1186 -98.3908 98° East 479 551 41,000  Level Houston Center
12:46PM 31.0986 -98.2375 99° East 476 548 41,000  Level Houston Center
12:47PM 31.0783 -98.0831 99° East 478 550 41,000  Level Houston Center
12:48PM 31.0581 -97.9275 99° East 479 551 41,000  Level Houston Center
12:49PM 31.0367 -97.7725 99° East 481 554 41,000  Level Houston Center
12:50PM 31.0161 -97.6156 99° East 484 557 41,000 -60 Level Houston Center
12:51PM 30.9944 -97.4581 99° East 487 560 40,900 -540 Descending Houston Center
12:52PM 30.9733 -97.2961 99° East 489 563 40,000 -900 Descending Houston Center
12:53PM 30.9444 -97.1469 103° East 477 549 39,100 -1,200 Descending Houston Center
12:54PM 30.8869 -97.0031 115° Southeast 459 528 37,600 -2,220 Descending Houston Center
12:56PM 30.8267 -96.8419 114° Southeast 462 532 34,500 -3,300 Descending Houston Center
12:57PM 30.7708 -96.6997 115° Southeast 475 547 30,900 -3,600 Descending Houston Center
12:58PM 30.7208 -96.5628 113° Southeast 462 532 27,100 -3,720 Descending Houston Center
12:59PM 30.6692 -96.4317 115° Southeast 446 513 23,300 -3,720 Descending Houston Center
01:00PM 30.6222 -96.3028 113° Southeast 433 498 19,500 -3,180 Descending Houston Center
01:00PM 30.5808 -96.1997 115° Southeast 388 447 17,600 -2,280 Descending Houston Center
01:01PM 30.5761 -96.1853 111° Southeast 403 464 17,200 -2,520 Descending Houston Center
01:01PM 30.5481 -96.1114 114° Southeast 395 455 15,500 -2,340 Descending Houston Center
01:02PM 30.5322 -96.0678 113° Southeast 394 453 14,800 -2,400 Descending Houston Center
01:02PM 30.4997 -95.9883 115° Southeast 380 437 13,100 -2,460 Descending Houston Center
01:03PM 30.4869 -95.9497 111° Southeast 380 437 12,300 -1,020 Descending Houston Center
01:03PM 30.4589 -95.8792 115° Southeast 342 394 12,000 -300 Descending Houston Center
01:04PM 30.4444 -95.8525 122° Southeast 342 394 12,000  Level Houston Center
01:04PM 30.3956 -95.8044 140° Southeast 335 386 12,000  Level Houston Center
01:05PM 30.3747 -95.7819 137° Southeast 334 384 12,000  Level Houston Center
01:05PM 30.3261 -95.7303 137° Southeast 331 381 12,000 -300 Level Houston Center
01:06PM 30.2928 -95.6947 137° Southeast 332 382 11,700 -1,020 Descending Houston Center
01:06PM 30.2547 -95.6586 141° Southeast 335 386 11,000 -1,260 Descending Houston Center
01:07PM 30.2236 -95.6231 135° Southeast 333 383 10,400 -1,260 Descending Houston Center
01:07PM 30.1894 -95.5867 137° Southeast 321 369 9,700 -1,260 Descending Houston Center
01:08PM 30.1586 -95.5556 139° Southeast 319 367 9,100 -1,320 Descending Houston Center
01:08PM 30.1272 -95.5239 139° Southeast 295 339 8,400 -1,500 Descending Houston Center
01:09PM 30.1083 -95.4850 119° Southeast 295 339 7,600 -1,560 Descending Houston Center
01:09PM 30.1083 -95.4319 90° East 273 314 6,800 -1,380 Descending Houston Center
01:10PM 30.1081 -95.3975 91° East 274 315 6,200 -840 Descending Houston Center
01:10PM 30.1050 -95.3481 94° East 258 297 6,000 -240 Descending Houston Center
01:11PM 30.1056 -95.3169 89° East 255 293 6,000 -1,140 Level Houston Center
01:11PM 30.1072 -95.2800 87° East 204 235 4,900 -1,980 Descending Houston Center
01:12PM 30.1033 -95.2394 96° East 207 238 4,000 -1,500 Descending Houston Center
01:13PM 30.0844 -95.2153 132° Southeast 222 255 3,400 -1,080 Descending Houston Center
01:13PM 30.0600 -95.1922 141° Southeast 215 247 2,900 -900 Descending Houston Center
01:14PM 30.0319 -95.1950 185° South 188 216 2,500 -780 Descending Houston Center
01:14PM 30.0103 -95.2075 207° Southwest 197 227 2,100 -600 Descending Houston Center
01:15PM 29.9972 -95.2258 231° Southwest 147 169 1,900 -600 Descending Houston Center
01:15PM 29.9911 -95.2467 251° West 163 188 1,500 -720 Descending Houston Center
01:16PM 29.9925 -95.2675 274° West 110 127 1,200 -600 Descending Houston Center
01:16PM 29.9936 -95.2825 275° West 130 150 900 -600 Descending Houston Center
01:17PM 29.9936 -95.3011 270° West 108 124 600 -600 Descending Houston Center
01:17PM 29.9936 -95.3161 270° West 115 132 300 -480 Descending Houston Center